sat.trackr.live / text

‹ back to catalog

QIANFAN-2

NORAD 60380 · 2024-140B

PAYLOAD ACTIVE UNKNOWN

§ Identity

Operator
Country
PRC
Launch date
2024-08-06
Launch site
TAISC
Launch vehicle
Mass (kg)
RCS (m²)

External: N2YO · Heavens-Above · Gunter

§ Orbital elements

Epoch: 2026-09-22T21:37:16.972896Z

Period
106.59 min
Inclination
88.9651°
Eccentricity
0.0014904
Mean motion
13.51020479 rev/d
Perigee alt
1,057.4 km
Apogee alt
1,079.6 km
Semi-major
7,446.6 km
B*
5.2672e-5
RAAN
269.5758°
Arg perigee
87.2338°
Mean anomaly
273.0519°
Rev number
10,577

§ Raw data

QIANFAN-21 60380U 24140B   26265.90089089  .00000046  00000+0  52672-4 0  99972 60380  88.9651 269.5758 0014904  87.2338 273.0519 13.51020479105776

JSON: /api/v1/satellites/60380 · /tle

For live sub-satellite position, see the globe view (requires WebGL).

§ Visibility from observer

Set your observer location to see the next 7 days of passes ≥ 10°. The values pass through the URL so the page stays shareable.

No JS? Fill the form by hand. The geolocation button needs JavaScript.